This is the latest recevied weather packets stored in our database for station/object OE8NDR-11. If no packets are shown the sender has not sent any weather packets the latest 10 day(s).
| Time | Temp. | Humidity | Pressure | Rain* | Wind** | Luminosity | Snow |
|---|---|---|---|---|---|---|---|
| 1777879995 | 18.33° C | 35% | 1019.9 hPa | 0 mm | - | - | - |
| 1777879695 | 18.33° C | 34% | 1019.9 hPa | 0 mm | - | - | - |
| 1777879395 | 18.33° C | 36% | 1020 hPa | 0 mm | - | - | - |
| 1777879095 | 18.33° C | 33% | 1019.9 hPa | 0 mm | - | - | - |
| 1777878795 | 18.33° C | 33% | 1020 hPa | 0 mm | - | - | - |
| 1777878495 | 18.89° C | 34% | 1020.1 hPa | 0 mm | - | - | - |
| 1777878195 | 18.33° C | 35% | 1020.1 hPa | 0 mm | - | - | - |
| 1777877895 | 18.33° C | 38% | 1020 hPa | 0 mm | - | - | - |
| 1777877595 | 17.78° C | 37% | 1020 hPa | 0 mm | - | - | - |
| 1777877295 | 17.78° C | 38% | 1020.1 hPa | 0 mm | - | - | - |
| 1777876995 | 17.22° C | 42% | 1020.1 hPa | 0 mm | - | - | - |
| 1777876695 | 16.67° C | 44% | 1020.1 hPa | 0 mm | - | - | - |
| 1777876395 | 16.67° C | 45% | 1020 hPa | 0 mm | - | - | - |
| 1777876095 | 16.67° C | 47% | 1020 hPa | 0 mm | - | - | - |
| 1777875795 | 16.67° C | 47% | 1020 hPa | 0 mm | - | - | - |
| 1777875495 | 16.67° C | 47% | 1020.1 hPa | 0 mm | - | - | - |
| 1777875195 | 16.11° C | 47% | 1020.1 hPa | 0 mm | - | - | - |
| 1777874895 | 16.11° C | 48% | 1020 hPa | 0 mm | - | - | - |
| 1777874595 | 15.56° C | 48% | 1019.9 hPa | 0 mm | - | - | - |
| 1777874295 | 16.11° C | 47% | 1020.1 hPa | 0 mm | - | - | - |
| 1777873995 | 16.11° C | 48% | 1020 hPa | 0 mm | - | - | - |
| 1777873695 | 15.56° C | 50% | 1020 hPa | 0 mm | - | - | - |
| 1777873395 | 15° C | 49% | 1020.1 hPa | 0 mm | - | - | - |
| 1777873095 | 15° C | 49% | 1020 hPa | 0 mm | - | - | - |
| 1777872795 | 15° C | 46% | 1020.1 hPa | 0 mm | - | - | - |
* Rain latest hour (hover to see other rain measurements)
** Current wind speed in m/s (hover to see current wind gust speed)